Location: Izdebno
(52.6670°N, 16.2170°E)
Time: 14:12:19
(UTC+02:00)

A-11 Canister half - Pass Details

Date: 02 March 2024
Orbit: 1525 x 1683 km, 47.3° (Epoch: 24 April)

Event Time Altitude Azimuth Distance (km) Brightness Sun altitude
Rises 21:14:44 0° 254° (WSW) 4,772 12.1 -32.2°
Reaches altitude 10° 21:17:53 10° 252° (WSW) 3,767 11.4 -32.6°
Enters shadow 21:26:36 62° 192° (SSW) 1,705 8.9 -33.7°
